• In Portugal
  • List of Countries
  • For 7 days
  • Water Temperature
  • Satellite Maps
  • Weather Map
  • Weather Widgets
  • user-avatar
    Login

    Hourly Weather Canberra

    Today, 20 August, Monday

    Time Temperature Precipitation Wind Pressure Humidity
    00:00 0°C° 0 mm 3 mps 710 mmHg 81%
    01:00 0°C° 0 mm 3 mps 710 mmHg 81%
    02:00 -1°C° 0 mm 3 mps 710 mmHg 82%
    03:00 -1°C° 0 mm 3 mps 710 mmHg 82%
    04:00 -1°C° 0 mm 3 mps 710 mmHg 83%
    05:00 -1°C° 0 mm 3 mps 710 mmHg 84%
    06:00 -2°C° 0 mm 2 mps 711 mmHg 85%
    07:00 -2°C° 0 mm 2 mps 711 mmHg 85%
    08:00 +2°C° 0 mm 2 mps 711 mmHg 72%
    09:00 +5°C° 0 mm 2 mps 712 mmHg 58%
    10:00 +7°C° 0 mm 3 mps 712 mmHg 45%
    11:00 +9°C° 0 mm 3 mps 712 mmHg 42%
    12:00 +10°C° 0 mm 3 mps 711 mmHg 39%
    13:00 +11°C° 0 mm 3 mps 711 mmHg 36%
    14:00 +11°C° 0 mm 3 mps 711 mmHg 41%
    15:00 +10°C° 0 mm 4 mps 710 mmHg 45%
    16:00 +10°C° 0 mm 4 mps 710 mmHg 50%
    17:00 +7°C° 0 mm 4 mps 710 mmHg 59%
    18:00 +5°C° 0 mm 4 mps 710 mmHg 69%
    19:00 +4°C° 0 mm 3 mps 710 mmHg 79%
    20:00 +4°C° 0 mm 3 mps 710 mmHg 80%
    21:00 +4°C° 0 mm 4 mps 710 mmHg 82%
    22:00 +3°C° 0 mm 4 mps 710 mmHg 84%
    23:00 +3°C° 0 mm 4 mps 709 mmHg 83%

    Tomorrow, 21 August, Tuesday

    Time Temperature Precipitation Wind Pressure Humidity
    00:00 +4°C° 0 mm 4 mps 709 mmHg 82%
    01:00 +3°C° 0 mm 5 mps 708 mmHg 82%
    02:00 +2°C° 0 mm 5 mps 708 mmHg 81%
    03:00 +2°C° 0 mm 5 mps 708 mmHg 81%
    04:00 +2°C° 0 mm 5 mps 708 mmHg 80%
    05:00 +2°C° 0 mm 5 mps 708 mmHg 81%
    06:00 +3°C° 0 mm 4 mps 708 mmHg 82%
    07:00 +4°C° 0 mm 4 mps 708 mmHg 83%
    08:00 +5°C° 0 mm 5 mps 708 mmHg 77%
    09:00 +6°C° 0 mm 5 mps 708 mmHg 71%
    10:00 +7°C° 0 mm 6 mps 708 mmHg 65%
    11:00 +8°C° 0 mm 6 mps 707 mmHg 63%
    12:00 +8°C° 0 mm 6 mps 707 mmHg 62%
    13:00 +8°C° 0 mm 6 mps 706 mmHg 61%
    14:00 +8°C° 0 mm 6 mps 706 mmHg 63%
    15:00 +7°C° 0 mm 6 mps 706 mmHg 66%
    16:00 +5°C° 0 mm 6 mps 706 mmHg 68%
    17:00 +6°C° 0 mm 5 mps 706 mmHg 72%
    18:00 +5°C° 0 mm 4 mps 706 mmHg 75%
    19:00 +4°C° 0 mm 4 mps 706 mmHg 78%
    20:00 +4°C° 0 mm 4 mps 706 mmHg 80%
    21:00 +3°C° 0 mm 3 mps 706 mmHg 82%
    22:00 +3°C° 0 mm 3 mps 707 mmHg 84%
    23:00 +2°C° 0 mm 3 mps 707 mmHg 86%

    Day after tomorrow, 22 August, Wednesday

    Time Temperature Precipitation Wind Pressure Humidity
    00:00 +2°C° 0 mm 3 mps 707 mmHg 87%
    01:00 +3°C° 0 mm 2 mps 707 mmHg 89%
    02:00 +2°C° 0 mm 2 mps 706 mmHg 91%
    03:00 +2°C° 0 mm 2 mps 706 mmHg 92%
    04:00 +1°C° 0 mm 2 mps 706 mmHg 94%
    05:00 +1°C° 0 mm 2 mps 707 mmHg 94%
    06:00 +2°C° 0 mm 1 mps 707 mmHg 95%
    07:00 +2°C° 0 mm 1 mps 707 mmHg 95%
    08:00 +5°C° 0 mm 1 mps 708 mmHg 83%
    09:00 +7°C° 0 mm 1 mps 708 mmHg 71%
    10:00 +10°C° 0 mm 1 mps 709 mmHg 59%
    11:00 +10°C° 0 mm 2 mps 709 mmHg 57%
    12:00 +12°C° 0 mm 2 mps 708 mmHg 54%
    13:00 +13°C° 0 mm 2 mps 708 mmHg 51%
    14:00 +12°C° 0 mm 2 mps 708 mmHg 55%
    15:00 +10°C° 0 mm 3 mps 708 mmHg 59%
    16:00 +10°C° 0 mm 3 mps 708 mmHg 63%
    17:00 +8°C° 0 mm 2 mps 708 mmHg 71%
    18:00 +6°C° 0 mm 2 mps 708 mmHg 80%
    19:00 +6°C° 0 mm 1 mps 709 mmHg 89%
    20:00 +5°C° 0 mm 1 mps 709 mmHg 91%
    21:00 +4°C° 0 mm 1 mps 709 mmHg 92%
    22:00 +3°C° 0 mm 0 mps 710 mmHg 94%
    23:00 +2°C° 0 mm 0 mps 709 mmHg 95%

    23 August, Thursday

    Time Temperature Precipitation Wind Pressure Humidity
    00:00 +2°C° 0 mm 0 mps 709 mmHg 95%
    01:00 +1°C° 0 mm 0 mps 709 mmHg 95%
    02:00 +1°C° 0 mm 0 mps 709 mmHg 95%
    03:00 +1°C° 0 mm 0 mps 709 mmHg 96%
    04:00 +1°C° 0 mm 0 mps 708 mmHg 96%
    05:00 +1°C° 0 mm 0 mps 709 mmHg 95%
    06:00 +1°C° 0 mm 0 mps 709 mmHg 95%
    07:00 +1°C° 0 mm 0 mps 709 mmHg 95%
    08:00 +5°C° 0 mm 1 mps 710 mmHg 82%
    09:00 +8°C° 0 mm 1 mps 710 mmHg 70%
    10:00 +11°C° 0 mm 1 mps 711 mmHg 57%
    11:00 +12°C° 0 mm 1 mps 710 mmHg 53%
    12:00 +13°C° 0 mm 1 mps 710 mmHg 49%
    13:00 +14°C° 0 mm 2 mps 710 mmHg 44%
    14:00 +14°C° 0 mm 2 mps 710 mmHg 46%
    15:00 +14°C° 0 mm 1 mps 709 mmHg 47%
    16:00 +14°C° 0 mm 1 mps 709 mmHg 48%
    17:00 +11°C° 0 mm 1 mps 710 mmHg 59%
    18:00 +9°C° 0 mm 1 mps 710 mmHg 70%
    19:00 +5°C° 0 mm 0 mps 710 mmHg 81%
    20:00 +6°C° 0 mm 1 mps 710 mmHg 84%
    21:00 +5°C° 0 mm 1 mps 711 mmHg 88%
    22:00 +5°C° 0 mm 1 mps 711 mmHg 92%
    23:00 +5°C° 0 mm 1 mps 711 mmHg 93%

    24 August, Friday

    Time Temperature Precipitation Wind Pressure Humidity
    00:00 +5°C° 0 mm 1 mps 711 mmHg 94%
    01:00 +5°C° 0 mm 1 mps 711 mmHg 96%
    02:00 +5°C° 0 mm 1 mps 711 mmHg 96%
    03:00 +5°C° 0 mm 1 mps 711 mmHg 96%
    04:00 +5°C° 0 mm 1 mps 711 mmHg 96%
    05:00 +5°C° 0 mm 1 mps 711 mmHg 96%
    06:00 +5°C° 0 mm 1 mps 711 mmHg 96%
    07:00 +5°C° 0 mm 1 mps 712 mmHg 95%
    08:00 +7°C° 0 mm 1 mps 712 mmHg 87%
    09:00 +8°C° 0 mm 2 mps 712 mmHg 78%
    10:00 +12°C° 0 mm 2 mps 713 mmHg 69%
    11:00 +12°C° 0.1 mm 2 mps 712 mmHg 66%
    12:00 +13°C° 0.1 mm 2 mps 712 mmHg 63%
    13:00 +14°C° 0.1 mm 2 mps 712 mmHg 60%
    14:00 +12°C° 0.2 mm 3 mps 711 mmHg 65%
    15:00 +12°C° 0.2 mm 3 mps 711 mmHg 70%
    16:00 +11°C° 0.2 mm 4 mps 711 mmHg 75%
    17:00 +10°C° 0 mm 3 mps 711 mmHg 82%
    18:00 +8°C° 0 mm 3 mps 712 mmHg 88%
    19:00 +7°C° 0 mm 3 mps 712 mmHg 95%
    20:00 +7°C° 0 mm 3 mps 712 mmHg 94%
    21:00 +7°C° 0 mm 3 mps 712 mmHg 94%
    22:00 +7°C° 0 mm 3 mps 713 mmHg 94%
    23:00 +7°C° 0 mm 3 mps 713 mmHg 94%

    25 August, Saturday

    Time Temperature Precipitation Wind Pressure Humidity
    00:00 +7°C° 0 mm 3 mps 713 mmHg 94%
    01:00 +7°C° 0 mm 3 mps 713 mmHg 94%
    02:00 +7°C° 0 mm 3 mps 712 mmHg 95%
    03:00 +5°C° 0 mm 3 mps 712 mmHg 95%
    04:00 +5°C° 0 mm 3 mps 712 mmHg 96%
    05:00 +5°C° 0 mm 3 mps 712 mmHg 95%
    06:00 +7°C° 0 mm 3 mps 712 mmHg 94%
    07:00 +7°C° 0 mm 3 mps 713 mmHg 93%
    08:00 +7°C° 0.1 mm 4 mps 713 mmHg 90%
    09:00 +7°C° 0.1 mm 4 mps 713 mmHg 88%
    10:00 +8°C° 0.1 mm 4 mps 713 mmHg 85%
    11:00 +8°C° 1 mm 4 mps 712 mmHg 88%
    12:00 +8°C° 1 mm 4 mps 712 mmHg 90%
    13:00 +8°C° 1 mm 4 mps 711 mmHg 92%
    14:00 +8°C° 1.4 mm 4 mps 711 mmHg 93%
    15:00 +8°C° 1.4 mm 4 mps 711 mmHg 94%
    16:00 +8°C° 1.4 mm 4 mps 710 mmHg 94%
    17:00 +9°C° 0.5 mm 3 mps 711 mmHg 95%
    18:00 +8°C° 0.5 mm 3 mps 711 mmHg 96%
    19:00 +8°C° 0.5 mm 3 mps 711 mmHg 97%
    20:00 +8°C° 0.6 mm 2 mps 711 mmHg 97%
    21:00 +8°C° 0.6 mm 2 mps 711 mmHg 97%
    22:00 +8°C° 0.6 mm 2 mps 711 mmHg 97%
    23:00 +9°C° 0.6 mm 2 mps 711 mmHg 97%
    Show more